Regional Weather Roundup
Issued by NWS Charleston, SC

Current Version | Previous Version | Graphics & Text | Print | Product List | Glossary On
Versions: 1 2 3 4 5 6 7 8 9 10 11 12 13 14 15 16 17 18 19 20 21 22 23 24 25 26 27 28 29 30 31 32 33 34 35 36 37 38 39 40 41 42 43 44 45 46 47 48 49 50
042 ASUS42 KCHS 082012 RWRCHS REGIONAL WEATHER ROUNDUP NATIONAL WEATHER SERVICE CHARLESTON SC 300 PM EST MON FEB 08 2016 NOTE: "FAIR" INDICATES FEW OR NO CLOUDS BELOW 12,000 FEET WITH NO SIGNIFICANT WEATHER AND/OR OBSTRUCTIONS TO VISIBILITY. NOT ALL STATIONS ARE QUALITY CONTROLLED BY THE NATIONAL WEATHER SERVICE. USE DATA WITH CAUTION...ESPECIALLY DEWPOINT OBSERVATIONS. NOTICE: OBSERVATIONS FOR THE SAVANNAH-HILTON HEAD INTERNATIONAL AIRPORT /KSAV/ HAVE BEEN TEMPORARILY REMOVED DUE TO AN ERRONEOUS TEMPERATURE SENSOR. THE OBSERVATION WILL BE REINTRODUCED ONCE REPAIRS ARE COMPLETE. SCZ027-030-031-034>040-042>050-082100- ...SOUTHEAST SOUTH CAROLINA... CITY SKY/WX TMP DP RH WIND PRES REMARKS N CHARLESTON MOSUNNY 61 32 33 S18G26 29.73F WATERFRONT PRK N/A 55 40 56 S15 29.61F MOUNT PLEASANT FAIR 57 39 51 S17G24 29.74F JOHNS ISLAND FAIR 57 41 54 S15G26 29.75F PINOPOLIS N/A 61 32 33 SW7 29.65F MONCKS CORNER FAIR 57 28 33 SW12G17 29.71F SUMMERVILLE FAIR 61 34 36 S9 29.72F BEAUFORT MCAS SUNNY 63 33 32 SW17G25 29.73F BEAUFORT ARPT FAIR 59 37 44 S8G23 29.74F HILTON HEAD IS SUNNY 57 41 54 S15G23 29.77F WALTERBORO CLEAR 63 32 31 SW15G23 29.72F ALLENDALE MOCLDY 61 32 33 VRB3G15 29.70F ...SOUTHERN MIDLANDS AND PEE DEE... CITY SKY/WX TMP DP RH WIND PRES REMARKS GEORGETOWN NOT AVBL KINGSTREE NOT AVBL ORANGEBURG PTSUNNY 59 30 33 SW18G28 29.69F BARNWELL MOCLDY 59 32 36 SW10G20 29.69F AIKEN NOT AVBL MANNING FAIR 59 30 33 S14G20 29.70F COLUMBIA LGT RAIN 55 33 43 NW17G31 29.69R SUMTER PTSUNNY 59 30 33 S16G26 29.63F FLORENCE SUNNY 57 31 37 SW13G21 29.67F MYRTLE BEACH SUNNY 55 39 54 S23 29.74F N MYRTLE BEACH SUNNY 53 42 66 S16 29.73F $$ GAZ063-065-086>088-099>101-113>116-118-119-134>141-150-082100- ...SOUTHEAST GEORGIA... CITY SKY/WX TMP DP RH WIND PRES REMARKS SAVANNAH ARPT MOSUNNY 63 28 26 SW17G29 29.74F HUNTER AAF NOT AVBL FORT STEWART SUNNY 63 31 30 SW23G31 29.73F STATESBORO PTSUNNY 65 19 17 SW14G20 29.73F SYLVANIA MOCLDY 61 36 39 W7G17 29.73F CLAXTON FAIR 64 38 38 SW10G24 29.74F ...CSRA...CENTRAL AND FAR SOUTHEAST GEORGIA... CITY SKY/WX TMP DP RH WIND PRES REMARKS THOMSON PTSUNNY 55 39 55 W10 29.78F AUGUSTA-BUSH CLOUDY 53 35 50 NW23G31 29.73R AUGUSTA-DANIEL LGT RAIN 50 36 58 W13G23 29.74R SWAINSBORO CLOUDY 59 32 36 W13G20 29.72F VIDALIA PTSUNNY 61 32 33 SW14G25 29.74F EASTMAN CLOUDY 59 36 42 W12G18 29.76F HAZLEHURST MOCLDY 63 33 32 SW14G28 29.75F ALMA SUNNY 62 31 31 SW20G26 29.76F WAYCROSS SUNNY 66 35 31 SW15G25 29.77F JESUP FAIR 64 36 34 W13G25 29.77F BAXLEY FAIR 63 32 31 W13G21 29.75F BRUNSWICK SUNNY 63 32 31 SW15G21 29.79F SAINT SIMONS SUNNY 62 30 29 SW21G31 29.79F $$ SCZ027-028-034-036>038-045-046-048>050-GAZ119-141-082100- ...LAKE AND SUPPLEMENTAL COASTAL OBSERVATIONS... STATION/POSITION TIME TEMP WIND PRES WAVE SWELL AIR SEA DIR/SP/G HT/PER HT/PER/DIR (UTC) (F) (DEG/KT/KT) (MB) (FT/S) (FT/S/D) WINYAH BAY NOT AVBL LAKE MURRAY 1900 56 250/ 14/ 19 1004.7F ACE BASIN NERRS 1845 59 200/ 2 1009.0 FORT PULASKI 1900 60 52 230/ 11/ 20 1009.0F SAPELO ISLAND 1900 60 220/ 20 1010.0F $$ ANZ835-935-AMZ111-154-330-350-352-354-370-450-454-472-082100- ...C-MAN AND BUOY OBSERVATIONS... STATION/POSITION TIME TEMP WIND PRES WAVE SWELL AIR SEA DIR/SP/G HT/PER HT/PER/DIR (UTC) (F) (DEG/KT/KT) (MB) (FT/S) (FT/S/D) BUOY 41004 1950 58 65 230/ 23/ 29 1007.8F 7/12 3/12 BUOY 41008 1950 55 55 180/ 17/ 21 1009.1F 4/15 2/210/15 FOLLY BEACH CMAN 2000 54 200/ 18/ 24 1007.5F CAPERS NEARSHORE 1908 53 220/ 16/ 21 1007.7F FRIPP NEARSHORE 1900 54 210/ 17/ 21 1008.8F STATION/POSITION TIME TEMP WIND PRES WAVE SWELL AIR SEA DIR/SP/G HT/PER HT/PER/DIR (UTC) (F) (DEG/KT/KT) (MB) (FT/S) (FT/S/D) 5E ST. MARYS GA 1921 55 N/A 3/14 2/ 90/14 FRYING PAN BUOY 1900 57 59 220/ 17/ 21 1008.1F BUOY 41025 1950 47 73 290/ 8/ 12 1008.1F 13/16 13/ 80/16 CAPE LOOKOUT NC NOT AVBL BUOY 41002 1950 61 69 270/ 19/ 25 N/A 15/14 13/350/14 BUOY 41010 1920 62 72 1014.1F ST AUGUSTINE FL 2000 62 58 230/ 14/ 19 1011.7F $$

USA.gov is the U.S. government's official web portal to all federal, state and local government web resources and services.